Wind_Speed
18 18 19 19 18 19 19 18 17 16 16 14 14 14 13 14 14 14 14 15 14 14 14 14 14 13 13 13 13 13 14 14 14 15 16 17 18 19 21 23 24 25 27 28
19 20 21 20 18 19 19 18 17 16 16 15 15 15 15 15 15 15 16 16 16 15 14 15 15 15 14 15 15 16 16 16 17 18 19 20 21 22 23 25 26 28 29 30
19 20 20 19 18 19 19 18 18 17 16 17 16 16 16 16 16 16 16 16 16 16 16 16 16 17 17 17 18 18 19 20 20 21 22 22 23 25 26 27 29 30 31 32
19 19 19 16 17 19 18 18 17 16 16 16 16 16 17 17 17 18 18 18 18 18 18 18 18 18 19 19 20 20 21 22 23 24 25 25 26 28 29 30 31 31 32 34
21 20 18 17 19 19 18 17 16 15 15 16 17 17 16 17 18 19 20 20 20 20 20 20 20 21 21 21 21 22 23 24 25 26 27 28 29 30 31 32 33 33 35 36
22 22 20 17 19 19 18 16 15 16 16 17 18 18 18 19 19 20 21 22 22 22 22 22 22 22 22 23 23 24 25 25 27 28 29 30 31 32 33 34 35 36 37 37
24 23 21 18 19 19 19 17 17 18 19 19 18 19 20 21 21 22 22 22 22 23 23 24 24 24 24 24 25 26 27 28 29 30 31 32 33 34 35 36 37 37 38 39
23 23 21 19 19 20 19 19 19 19 19 19 19 20 21 22 23 23 23 24 24 24 24 25 25 24 25 26 27 28 29 30 31 32 33 34 35 36 37 38 38 39 40 40
22 21 20 19 19 20 20 20 20 20 20 19 20 21 22 23 24 23 24 25 25 26 26 26 25 26 27 28 28 29 30 31 33 34 35 36 38 38 39 40 40 41 42 42
20 20 19 18 18 19 20 21 21 21 21 22 22 23 24 25 25 24 24 25 27 27 26 27 27 27 29 30 30 31 33 34 35 36 37 39 40 41 42 42 43 44 43 44
20 19 19 19 19 19 20 21 21 22 23 24 24 25 25 26 26 25 25 26 27 28 27 28 28 29 30 31 33 34 35 36 38 39 40 41 42 43 44 44 45 45 45 46
20 20 20 19 19 20 21 21 21 21 22 24 25 25 26 26 27 27 27 27 27 28 29 30 31 32 32 34 35 35 37 39 40 41 43 44 45 45 45 46 46 47 48 49
21 22 23 23 22 22 22 21 21 21 22 23 24 25 26 27 28 28 28 28 28 29 30 31 33 34 35 36 37 38 40 41 42 44 45 46 47 47 47 47 48 49 50 51
22 22 22 23 23 22 21 21 22 22 23 24 24 25 25 26 26 27 27 28 29 30 31 33 35 36 37 38 39 41 42 44 45 45 46 47 48 49 50 50 50 51 52 53
23 23 23 23 23 23 23 23 23 23 23 24 25 25 26 26 27 28 29 30 31 32 34 35 36 38 39 40 42 43 44 45 47 48 49 50 51 52 53 53 54 54 54 54
22 22 23 23 23 23 24 25 24 24 25 25 26 26 27 28 28 29 30 31 32 33 35 36 38 39 41 42 44 45 47 48 49 50 51 53 54 55 55 56 56 56 56 56
22 22 23 23 24 24 25 25 25 25 26 26 26 27 28 28 29 31 32 33 34 36 37 39 40 41 43 44 46 47 49 50 51 53 54 55 56 57 57 58 58 57 57 57
23 24 24 24 24 24 25 25 26 26 27 27 28 28 29 30 32 33 34 35 37 38 40 41 42 44 45 47 48 49 51 52 53 54 55 57 57 58 58 58 58 58 57 56
23 24 24 23 23 23 25 26 26 27 27 28 29 30 31 33 34 35 36 38 39 41 42 43 45 46 47 48 50 51 52 53 55 56 57 58 58 58 58 58 57 56 55 54
23 23 23 23 23 24 25 26 27 27 28 30 31 33 34 36 37 38 39 41 42 43 44 45 47 48 49 51 52 53 54 55 56 57 57 57 57 57 56 56 55 54 53 51
23 23 23 24 24 25 26 27 29 30 31 32 34 36 37 38 40 41 42 43 44 45 46 47 49 50 51 52 53 54 54 55 55 55 55 55 55 54 53 52 51 50 48 47
24 25 26 26 27 28 29 31 32 33 35 36 38 39 40 41 42 43 44 45 46 47 48 49 50 51 52 52 53 53 54 54 54 54 53 52 51 50 49 48 47 45 43 41
28 29 29 29 30 31 32 34 35 36 38 39 40 41 42 43 44 45 45 46 48 48 49 49 50 50 51 52 52 52 51 51 51 51 50 48 47 46 44 42 40 38 36 34
32 32 33 33 34 35 36 37 39 40 41 42 43 43 44 44 45 46 46 47 47 47 47 48 48 49 49 49 48 48 48 48 47 46 44 42 41 40 38 35 33 31 29 28
35 36 36 37 38 39 40 41 42 43 44 44 45 45 45 46 46 45 45 45 45 45 45 45 45 45 45 45 44 44 42 42 41 40 38 37 35 33 31 29 28 26 25 25
38 39 39 40 41 42 42 43 43 44 44 44 44 44 44 44 44 44 43 43 42 42 42 42 41 41 41 40 39 38 37 37 36 34 33 31 30 29 27 26 25 25 24 23
39 39 40 41 41 42 42 42 42 42 42 42 42 41 41 41 40 40 40 39 40 40 39 39 38 38 37 36 35 35 34 33 31 30 29 28 26 25 24 23 22 21 21 19
Wind_Direction
264 270 271 269 272 273 273 273 273 269 265 264 259 255 255 256 256 253 250 247 242 242 243 243 244 246 250 253 257 260 263 268 274 280 286 290 293 296 300 304 306 308 310 311
264 268 270 266 269 272 273 274 272 268 264 261 260 259 259 259 255 253 249 246 244 245 247 247 248 252 256 259 262 265 267 271 277 281 286 290 293 296 298 301 304 306 308 309
267 268 268 264 268 271 274 274 273 269 262 257 257 257 256 258 255 251 247 246 246 248 249 250 252 257 260 264 266 269 272 275 280 283 286 290 293 295 297 299 302 305 307 308
269 268 268 271 272 273 272 273 274 269 259 255 255 254 256 259 258 256 252 248 248 252 253 255 256 260 264 267 269 272 275 278 281 284 287 290 293 295 297 299 301 304 305 307
269 268 271 269 272 275 274 271 268 265 259 256 256 255 258 261 261 258 256 255 255 255 257 259 262 264 266 269 271 274 277 280 282 285 288 290 292 294 296 298 300 302 303 305
266 269 273 271 271 272 272 268 266 263 263 264 261 259 259 262 263 259 258 258 258 258 259 260 261 265 268 270 273 276 279 281 283 286 289 291 293 294 296 297 299 301 302 304
265 270 270 268 269 271 270 272 264 261 261 264 263 260 260 262 261 259 257 260 261 260 261 261 262 267 270 272 275 278 281 283 284 287 289 291 293 294 296 297 298 300 301 302
262 267 266 262 266 268 270 267 263 262 259 259 258 259 261 262 261 259 258 261 263 265 265 266 268 270 273 274 277 279 282 284 285 287 289 291 293 294 296 297 299 299 300 301
262 263 261 261 265 266 265 265 263 261 258 258 259 260 262 264 265 263 264 265 266 267 268 270 272 274 275 278 280 282 283 284 286 287 289 290 292 294 296 297 298 298 299 301
260 260 260 262 266 265 263 263 262 261 259 256 257 259 262 265 268 266 265 267 266 265 267 270 272 274 277 279 281 282 282 284 286 287 289 290 292 293 295 296 297 298 298 300
257 256 256 261 263 260 261 262 261 260 257 257 260 261 263 266 268 267 265 265 265 265 267 270 273 275 277 279 280 282 283 284 285 287 288 289 290 292 293 295 296 297 298 299
255 255 258 261 263 262 262 263 263 262 260 259 259 262 264 265 265 265 266 265 265 267 269 271 273 275 277 279 280 282 283 285 285 286 288 290 291 292 293 294 296 297 297 298
259 259 260 262 264 263 262 264 265 265 265 264 263 263 265 267 266 266 266 266 269 271 273 274 275 277 279 282 283 284 285 286 287 287 289 291 291 291 292 293 295 296 296 297
260 261 261 261 262 263 262 263 265 266 267 267 267 266 267 269 271 271 271 271 272 274 275 276 278 279 281 283 284 285 286 287 288 288 289 290 291 291 292 293 294 294 295 296
259 261 262 262 264 264 264 264 266 266 266 266 266 269 270 271 273 272 273 274 276 277 278 279 281 282 283 284 285 286 287 287 288 289 289 290 290 291 292 293 293 293 293 293
259 261 262 263 263 265 264 264 265 265 266 268 270 272 272 274 275 276 276 278 279 280 281 282 283 284 285 285 286 287 287 287 288 288 289 289 290 290 291 292 292 293 293 293
260 260 261 262 264 265 265 267 268 267 268 271 273 274 275 277 279 280 281 282 283 284 284 284 285 286 286 286 287 287 287 288 288 289 289 290 290 291 291 292 292 292 292 292
264 264 263 264 266 266 267 269 270 270 272 273 276 279 279 281 282 282 283 284 285 286 286 286 287 287 287 287 287 288 288 288 289 289 290 290 291 291 291 292 292 292 292 292
264 265 265 267 268 270 271 272 273 273 274 278 281 282 284 284 285 285 285 286 287 287 288 288 288 289 289 289 289 289 289 290 290 291 291 291 292 292 292 292 292 293 293 293
269 270 269 269 271 272 273 275 275 276 279 281 283 284 286 287 287 288 289 289 289 289 290 289 290 290 290 290 291 291 291 291 291 292 292 292 292 293 293 293 293 293 293 293
269 268 269 269 270 273 274 275 278 280 282 284 286 288 289 289 290 291 291 291 291 292 292 292 292 292 292 292 293 293 292 292 292 292 292 293 293 293 293 293 293 292 292 293
271 272 274 273 274 277 278 281 283 285 286 287 289 290 290 291 292 293 293 293 293 293 293 293 293 293 293 294 294 294 294 293 293 293 293 293 293 293 293 293 292 292 292 292
273 274 276 278 279 281 282 284 286 288 290 291 291 292 291 292 293 294 294 294 294 294 294 294 294 294 294 295 295 295 295 295 295 295 295 294 294 294 294 293 293 292 292 291
276 277 279 281 283 284 285 286 288 289 291 292 293 293 294 294 295 295 295 295 295 295 295 295 295 296 296 296 296 297 297 297 297 297 296 296 296 296 295 295 294 293 292 290
278 281 282 283 284 285 286 288 289 290 292 293 294 294 295 295 295 296 296 296 296 296 296 297 297 297 297 298 299 299 299 299 300 299 298 297 297 297 297 295 293 291 291 290
282 284 285 286 287 288 290 291 291 292 293 293 294 294 295 296 296 296 296 297 297 298 298 299 299 299 300 301 302 302 301 302 302 303 302 301 299 298 297 295 292 292 290 288
285 286 287 288 289 290 291 292 292 293 294 294 295 295 296 296 297 297 297 297 298 299 300 300 301 301 302 303 303 304 304 304 304 304 303 302 301 299 297 296 294 293 292 288
Height
5829 5829 5830 5830 5830 5830 5831 5831 5832 5833 5833 5835 5835 5835 5836 5836 5836 5836 5837 5837 5838 5838 5838 5839 5839 5839 5839 5839 5839 5839 5838 5838 5837 5836 5835 5834 5833 5831 5830 5827 5825 5822 5820 5817
5824 5824 5824 5825 5825 5825 5826 5826 5827 5828 5829 5830 5831 5831 5832 5832 5832 5833 5833 5834 5834 5835 5835 5835 5835 5835 5835 5835 5834 5834 5833 5833 5832 5831 5830 5829 5827 5825 5823 5821 5819 5816 5813 5810
5818 5818 5818 5820 5821 5820 5821 5822 5822 5823 5825 5825 5826 5827 5828 5828 5828 5829 5829 5829 5830 5830 5830 5830 5830 5830 5830 5829 5829 5828 5828 5827 5826 5825 5823 5822 5820 5819 5816 5814 5811 5809 5806 5802
5812 5813 5813 5817 5815 5815 5816 5816 5817 5818 5819 5820 5821 5822 5823 5824 5824 5825 5825 5825 5825 5825 5825 5825 5825 5824 5824 5823 5823 5822 5822 5821 5819 5818 5817 5815 5813 5811 5809 5806 5804 5801 5797 5794
5807 5807 5808 5810 5810 5810 5810 5811 5812 5813 5814 5815 5815 5816 5818 5818 5819 5819 5820 5820 5820 5819 5819 5819 5818 5818 5817 5817 5816 5816 5815 5814 5812 5811 5809 5807 5805 5803 5801 5798 5795 5792 5789 5785
5801 5801 5803 5806 5804 5803 5805 5806 5808 5808 5809 5810 5810 5811 5812 5812 5812 5813 5813 5813 5813 5812 5812 5812 5811 5811 5811 5810 5809 5808 5807 5806 5804 5803 5801 5799 5797 5794 5792 5789 5786 5783 5780 5776
5794 5795 5796 5798 5798 5798 5800 5802 5802 5802 5803 5804 5804 5805 5806 5805 5806 5806 5806 5806 5806 5805 5805 5805 5804 5804 5803 5802 5801 5800 5799 5798 5796 5794 5792 5790 5788 5786 5783 5780 5777 5774 5770 5766
5787 5788 5792 5792 5792 5793 5794 5794 5794 5795 5796 5797 5798 5798 5798 5799 5799 5799 5799 5799 5799 5798 5798 5797 5797 5796 5795 5794 5793 5792 5791 5789 5787 5786 5784 5781 5779 5776 5773 5770 5767 5763 5760 5756
5782 5784 5784 5785 5786 5786 5787 5788 5788 5789 5790 5791 5791 5791 5792 5792 5792 5792 5792 5791 5791 5791 5791 5790 5789 5788 5788 5786 5785 5784 5782 5780 5778 5776 5774 5772 5769 5766 5763 5760 5756 5753 5749 5746
5775 5776 5777 5779 5779 5780 5781 5781 5781 5782 5783 5784 5785 5785 5785 5785 5785 5784 5784 5784 5783 5783 5783 5782 5781 5780 5779 5778 5777 5775 5773 5771 5769 5767 5764 5762 5759 5756 5752 5749 5745 5742 5738 5734
5768 5770 5771 5772 5773 5774 5774 5774 5775 5775 5776 5777 5777 5777 5778 5778 5777 5777 5776 5776 5776 5775 5774 5774 5773 5772 5771 5769 5768 5766 5764 5761 5759 5757 5754 5751 5748 5744 5741 5737 5733 5730 5726 5722
5763 5764 5765 5766 5766 5767 5767 5768 5768 5768 5769 5769 5769 5770 5770 5769 5769 5769 5769 5768 5767 5767 5766 5765 5763 5762 5761 5759 5758 5756 5754 5751 5748 5745 5742 5739 5736 5733 5729 5726 5721 5717 5713 5709
5756 5757 5758 5759 5759 5760 5760 5760 5761 5761 5761 5761 5762 5762 5762 5761 5761 5760 5760 5759 5759 5758 5757 5755 5754 5752 5750 5749 5747 5745 5742 5740 5737 5734 5731 5727 5724 5720 5717 5713 5708 5704 5699 5695
5749 5750 5751 5751 5752 5752 5752 5753 5753 5753 5754 5754 5754 5754 5753 5753 5753 5752 5751 5751 5750 5749 5747 5746 5744 5742 5740 5738 5736 5734 5731 5728 5725 5721 5718 5714 5710 5707 5703 5699 5695 5691 5686 5681
5743 5743 5744 5744 5745 5745 5745 5745 5746 5746 5746 5746 5746 5746 5745 5744 5744 5743 5742 5741 5740 5739 5737 5736 5734 5731 5729 5727 5724 5721 5718 5715 5712 5708 5704 5701 5697 5692 5688 5684 5680 5676 5671 5666
5736 5737 5737 5737 5738 5738 5738 5738 5738 5738 5738 5738 5737 5737 5736 5736 5735 5734 5732 5731 5730 5728 5727 5725 5723 5720 5718 5715 5712 5709 5705 5701 5698 5694 5690 5686 5681 5677 5673 5668 5664 5659 5655 5651
5730 5730 5730 5730 5730 5730 5730 5730 5730 5730 5730 5729 5729 5728 5728 5727 5725 5724 5723 5721 5719 5717 5715 5713 5711 5708 5705 5702 5699 5695 5691 5687 5683 5679 5674 5670 5665 5661 5656 5651 5647 5643 5638 5633
5723 5723 5723 5723 5723 5723 5722 5722 5722 5722 5722 5721 5720 5719 5718 5717 5716 5714 5712 5710 5708 5706 5703 5700 5698 5695 5691 5688 5684 5681 5676 5672 5668 5663 5658 5653 5649 5644 5639 5634 5629 5625 5621 5616
5715 5715 5715 5715 5715 5715 5714 5714 5713 5713 5712 5712 5711 5710 5708 5707 5705 5703 5701 5699 5696 5693 5690 5687 5684 5681 5677 5673 5669 5665 5661 5656 5651 5646 5641 5636 5631 5626 5621 5616 5611 5607 5603 5599
5708 5708 5708 5708 5707 5707 5706 5706 5705 5704 5703 5702 5701 5700 5698 5696 5694 5691 5689 5686 5683 5680 5677 5673 5670 5666 5662 5657 5653 5648 5644 5639 5634 5629 5624 5619 5614 5609 5603 5599 5594 5590 5586 5582
5701 5701 5700 5700 5699 5699 5698 5697 5696 5695 5693 5692 5690 5689 5686 5684 5681 5679 5676 5673 5669 5666 5662 5659 5654 5650 5646 5641 5636 5631 5626 5621 5616 5611 5606 5601 5596 5592 5587 5582 5578 5574 5570 5567
5693 5693 5692 5692 5691 5690 5688 5687 5686 5684 5683 5681 5679 5676 5674 5671 5668 5665 5662 5659 5655 5651 5647 5643 5639 5634 5629 5624 5619 5614 5609 5604 5599 5594 5589 5584 5580 5576 5571 5567 5563 5559 5556 5553
5685 5684 5683 5682 5681 5680 5678 5676 5675 5673 5671 5669 5666 5664 5661 5658 5655 5652 5648 5644 5640 5636 5632 5627 5623 5618 5613 5608 5603 5598 5593 5588 5583 5578 5573 5569 5565 5561 5557 5553 5550 5547 5544 5541
5676 5675 5674 5672 5671 5669 5668 5666 5663 5661 5659 5656 5653 5650 5647 5644 5641 5637 5633 5630 5625 5621 5617 5612 5608 5603 5598 5593 5588 5583 5578 5573 5568 5563 5559 5555 5551 5547 5544 5541 5538 5536 5534 5532
5666 5664 5663 5662 5660 5658 5656 5654 5651 5649 5646 5643 5640 5637 5633 5630 5627 5623 5619 5615 5611 5607 5603 5598 5593 5589 5584 5579 5574 5570 5565 5560 5555 5551 5547 5543 5540 5536 5534 5531 5529 5527 5525 5523
5655 5653 5651 5649 5647 5645 5643 5640 5638 5635 5632 5629 5626 5623 5619 5616 5612 5608 5605 5601 5597 5593 5589 5584 5580 5576 5571 5567 5562 5558 5553 5549 5544 5540 5536 5533 5530 5527 5525 5522 5520 5519 5517 5516
5644 5642 5639 5637 5634 5632 5629 5627 5624 5621 5618 5616 5613 5609 5606 5602 5599 5595 5592 5588 5584 5580 5577 5573 5568 5564 5560 5556 5552 5548 5543 5539 5535 5531 5528 5524 5522 5519 5517 5515 5513 5511 5510 5509